Regional Weather Roundup
Issued by NWS

Home | Current Version | Previous Version | Text Only | Print | Product List | Glossary Off
Versions: 1 2 3 4 5 6 7 8 9 10 11 12 13 14 15 16 17 18 19 20 21 22 23 24 25 26 27 28 29 30 31 32 33 34 35 36 37 38 39 40 41 42 43 44 45 46 47 48 49

000
ASUS45 KBOU 180107
RWRCO

WEATHER ROUNDUP FOR COLORADO
NATIONAL WEATHER SERVICE DENVER/BOULDER CO
700 PM MDT WED SEP 17 2014

NOTE: "FAIR" INDICATES FEW OR NO CLOUDS BELOW 12000 FEET WITH NO
SIGNIFICANT WEATHER AND/OR OBSTRUCTIONS TO VISIBILITY.

COZ001>005-013-030-031-180200-
...NORTHWEST COLORADO...

CITY           SKY/WX    TMP DP  RH WIND       PRES   REMARKS
CRAIG          CLEAR     70  45  40 W3        30.08R
HAYDEN         CLEAR     75  36  23 W7        30.10S
MEEKER         CLEAR     76  37  24 N12       30.08R
MOUNT WERNER   NOT AVBL
STEAMBOAT SPGS PTCLDY    73  39  29 NE12      30.13R
WALDEN         PTCLDY    61  43  51 CALM      30.25R
$$

COZ006>008-011-180200-
...WEST CENTRAL VALLEYS...

CITY           SKY/WX    TMP DP  RH WIND       PRES   REMARKS
GRAND JUNCTION CLEAR     81  42  25 NW7       29.94S
MONTROSE       CLEAR     82  42  24 CALM      30.03S
EAGLE          CLEAR     81  36  19 N5        30.10S
RIFLE          CLEAR     80  42  25 CALM      29.99S
DELTA          CLEAR     87  33  14 NW14      29.97R
NUCLA          CLEAR     72  45  37 CALM      30.11R
$$

COZ017>023-064>068-180200-
...SOUTHWEST COLORADO...

CITY           SKY/WX    TMP DP  RH WIND       PRES   REMARKS
DURANGO        CLOUDY    60  50  69 N6        30.18F
CORTEZ         CLEAR     63  54  72 NE12      30.12S
PAGOSA SPRINGS CLOUDY    58  47  68 CALM      30.25R
TELLURIDE      NOT AVBL
WOLF CREEK PAS CLOUDY    45  34  65 SW5       30.50S
$$

COZ009-010-012-014-032>034-037-058>063-180200-
...CENTRAL COLORADO...

CITY           SKY/WX    TMP DP  RH WIND       PRES   REMARKS
ASPEN          PTCLDY    71  32  23 W7        30.17S
BUENA VISTA    CLOUDY    71  29  20 NE6       30.22R
COPPER MTN     PTCLDY    59  21  23 W9        30.54S
BERTHOUD PASS  MOCLDY    46  45  93 MISG      30.59F
COTTONWOOD PAS CLOUDY    64  27  24 CALM      30.37R
GUNNISON       PTCLDY    70  36  28 N8        30.19R
KREMMLING      PTCLDY    72  30  21 N10G17    30.18R
LEADVILLE      CLOUDY    60  30  32 SE6       30.35R
MONARCH PASS   MOCLDY    50  32  50 E9        30.62R
SALIDA         CLOUDY    74  33  22 CALM      30.25R
SUNLIGHT       CLEAR     59  34  38 CALM      30.45S
WILKERSON PASS NOT AVBL
$$

COZ069>075-180200-
...SAN LUIS VALLEY/SANGRE DE CRISTO MOUNTAINS...

CITY           SKY/WX    TMP DP  RH WIND       PRES   REMARKS
ALAMOSA        MOCLDY    67  39  35 S9        30.17S
LA VETA PASS   NOT AVBL
SAGUACHE       MOCLDY    68  39  34 E5        30.22S
$$

COZ035-036-038>040-180200-
...NORTHERN COLORADO FRONT RANGE...

CITY           SKY/WX    TMP DP  RH WIND       PRES   REMARKS
DENVER INTL AP MOCLDY    76  41  28 N14       30.05R
DMNS CITY PARK   N/A     76  42  29 N13G28    30.04R
AURORA         MOCLDY    77  37  23 N9        30.06R
FRONT RANGE AP MOCLDY    79  43  27 NE13      30.05R
ERIE MUNI ARPT MOCLDY    77  36  22 N13       30.03R
BOULDER MUN AP MOCLDY    77  37  24 N7        30.04R
CENTENNIAL     MOCLDY    79  37  22 SE6       30.06R
BROOMFIELD     NOT AVBL
FORT COLLINS   MOCLDY    73  46  38 SW7       30.04S
LONGMONT       MOCLDY    77  41  27 NW9       30.06R
$$

COZ041-046-047-076>085-087-088-180200-
...PIKES PEAK/PALMER DIVIDE AND SOUTHERN FOOTHILLS...

CITY           SKY/WX    TMP DP  RH WIND       PRES   REMARKS
COLO. SPRINGS  MOCLDY    77  37  23 E6        30.09S
A. F. ACADEMY  PTCLDY    74  41  30 SW2       30.12R
ELLICOTT       NOT AVBL
FALCON         PTCLDY    71  44  37 CALM      30.16R
FORT CARSON    PTCLDY    76  40  26 W6        30.06S
LIMON          CLEAR     72  40  31 S5        30.03S
MONUMENT HILL  PTCLDY    63  41  45 S6        30.16R
TRINIDAD       PTCLDY    76  44  32 S10       30.05R
$$

COZ042>045-048>051-090-091-180200-
...NORTHEAST COLORADO...

CITY           SKY/WX    TMP DP  RH WIND       PRES   REMARKS
GREELEY ARPT     N/A     72  45  37 W7        30.02R
AKRON          MOCLDY    71  41  33 N9        29.97F
BURLINGTON     PTCLDY    78  48  34 SW5       29.95S
WRAY           PTCLDY    79  48  33 E3        29.91S
STERLING       MOCLDY    77  50  38 SW8       29.94S
HOLYOKE        PTCLDY    73  55  53 E7        29.92S
FORT MORGAN    MOCLDY    73  43  33 CALM      29.99S
$$

COZ086-089-092>099-180200-
...SOUTHEAST COLORADO...

CITY           SKY/WX    TMP DP  RH WIND       PRES   REMARKS
PUEBLO         MOCLDY    84  37  18 NE10      29.95R
LA JUNTA       PTCLDY    82  39  21 SE7       29.92S
LAMAR          MOCLDY    81  40  23 S12       29.88S
SPRINGFIELD      N/A     72  59  63 S7        29.97S
$$


USA.gov is the U.S. government's official web portal to all federal, state and local government web resources and services.